Location: Il Ritiro
(43.4167°N, 13.1333°E)
Time: 01:15:08
(UTC+00:00)

Cosmos 2322 Rocket - Pass Details

Date: 05 July 2020
Orbit: 832 x 851 km, 71.0° (Epoch: 11 August)

Event Time Altitude Azimuth Distance (km) Brightness Sun altitude
Rises 19:52:42 0° 219° (SW) 3,365 5.3 -9.6°
Reaches altitude 10° 19:55:11 10° 224° (SW) 2,435 4.6 -9.9°
Maximum altitude 20:00:36 51° 300° (WNW) 1,046 3.2 -10.6°
Drops below altitude 10° 20:06:05 10° 16° (NNE) 2,453 5.0 -11.3°
Sets 20:08:37 0° 21° (NNE) 3,393 5.7 -11.6°
